This is the latest recevied weather packets stored in our database for station/object KD2DXJ. If no packets are shown the sender has not sent any weather packets the latest 10 day(s).
| Time | Temp. | Humidity | Pressure | Rain* | Wind** | Luminosity | Snow |
|---|---|---|---|---|---|---|---|
| 1778181476 | 11.11° C | 45% | 1009 hPa | 0 mm | - | 148 W/m² | - |
| 1778181173 | 10.56° C | 44% | 1009 hPa | 0 mm | - | 281 W/m² | - |
| 1778180870 | 10.56° C | 47% | 1009 hPa | 0 mm | - | 186 W/m² | - |
| 1778180569 | 10.56° C | 46% | 1009.2 hPa | 0 mm | - | 195 W/m² | - |
| 1778180267 | 11.67° C | 49% | 1009.2 hPa | 0 mm | - | 331 W/m² | - |
| 1778179963 | 11.67° C | 47% | 1009.1 hPa | 0 mm | - | 392 W/m² | - |
| 1778179661 | 11.11° C | 43% | 1009.3 hPa | 0 mm | - | 468 W/m² | - |
| 1778179359 | 12.22° C | 45% | 1009.1 hPa | 0 mm | - | 146 W/m² | - |
| 1778179055 | 12.78° C | 41% | 1009.3 hPa | 0 mm | - | 689 W/m² | - |
| 1778178752 | 12.78° C | 45% | 1009.2 hPa | 0 mm | - | 747 W/m² | - |
| 1778178450 | 12.22° C | 46% | 1009.2 hPa | 0 mm | - | 751 W/m² | - |
| 1778178144 | 10.56° C | 51% | 1009.2 hPa | 0 mm | - | 777 W/m² | - |
| 1778177842 | 11.11° C | 49% | 1009.3 hPa | 0 mm | - | 243 W/m² | - |
| 1778177538 | 10.56° C | 48% | 1009.4 hPa | 0 mm | - | 241 W/m² | - |
| 1778177235 | 11.11° C | 42% | 1009.3 hPa | 0 mm | - | 241 W/m² | - |
| 1778176932 | 10.56° C | 45% | 1009.3 hPa | 0 mm | - | 558 W/m² | - |
| 1778176627 | 10° C | 49% | 1009.3 hPa | 0 mm | - | 819 W/m² | - |
| 1778176324 | 10.56° C | 47% | 1009.4 hPa | 0 mm | - | 164 W/m² | - |
| 1778176022 | 10.56° C | 47% | 1009.4 hPa | 0 mm | - | 298 W/m² | - |
| 1778175720 | 10.56° C | 49% | 1009.2 hPa | 0 mm | - | 285 W/m² | - |
| 1778175417 | 10° C | 47% | 1009.4 hPa | 0 mm | - | 226 W/m² | - |
| 1778175113 | 10° C | 45% | 1009.4 hPa | 0 mm | - | 223 W/m² | - |
| 1778174810 | 10° C | 46% | 1009.5 hPa | 0 mm | - | 294 W/m² | - |
| 1778174508 | 10° C | 47% | 1009.5 hPa | 0 mm | - | 324 W/m² | - |
| 1778174207 | 10° C | 51% | 1009.5 hPa | 0 mm | - | 214 W/m² | - |
* Rain latest hour (hover to see other rain measurements)
** Current wind speed in m/s (hover to see current wind gust speed)